Time,TemperatureF,DewpointF,PressureIn,WindDirection,WindDirectionDegrees,WindSpeedMPH,WindSpeedGustMPH,Humidity,HourlyPrecipIn,Conditions,Clouds,dailyrainin,SoftwareType,DateUTC
2013-08-12 00:02:00,53.0,-99.9,-100.00,NW,315,0.0,0.0,-999,0.00,,,0.00,,2013-08-12 05:02:00,
2013-08-12 00:11:00,54.0,-99.9,-100.00,NW,315,0.0,0.0,-999,0.00,,,0.00,,2013-08-12 05:11:00,
2013-08-12 00:32:00,54.0,-99.9,-100.00,NW,315,0.0,0.0,-999,0.00,,,0.00,,2013-08-12 05:32:00,
2013-08-12 00:43:00,54.0,-99.9,-100.00,NW,315,0.0,0.0,-999,0.00,,,0.00,,2013-08-12 05:43:00,
2013-08-12 01:02:00,54.0,-99.9,-100.00,NW,315,0.0,1.0,-999,0.00,,,0.00,,2013-08-12 06:02:00,
2013-08-12 01:11:00,54.0,-99.9,-100.00,NW,315,1.0,2.0,-999,0.00,,,0.00,,2013-08-12 06:11:00,
2013-08-12 01:32:00,54.0,-99.9,-100.00,NW,315,1.0,3.0,-999,0.00,,,0.00,,2013-08-12 06:32:00,
2013-08-12 01:42:00,54.0,-99.9,-100.00,NW,315,1.0,2.0,-999,0.00,,,0.00,,2013-08-12 06:42:00,
2013-08-12 02:01:00,54.0,-99.9,-100.00,NW,315,1.0,3.0,-999,0.00,,,0.00,,2013-08-12 07:01:00,
2013-08-12 02:12:00,55.0,-99.9,-100.00,NW,315,0.0,2.0,-999,0.00,,,0.00,,2013-08-12 07:12:00,
2013-08-12 02:33:00,54.0,-99.9,-100.00,NW,315,0.0,1.0,-999,0.00,,,0.00,,2013-08-12 07:33:00,
2013-08-12 02:43:00,54.0,-99.9,-100.00,NW,315,0.0,1.0,-999,0.00,,,0.00,,2013-08-12 07:43:00,
2013-08-12 02:53:00,54.0,-99.9,-100.00,NW,315,0.0,1.0,-999,0.00,,,0.00,,2013-08-12 07:53:00,
2013-08-12 03:02:00,53.0,-99.9,-100.00,NW,315,0.0,1.0,-999,0.00,,,0.00,,2013-08-12 08:02:00,
2013-08-12 03:12:00,53.0,-99.9,-100.00,NW,315,0.0,1.0,-999,0.00,,,0.00,,2013-08-12 08:12:00,
2013-08-12 03:33:00,53.0,-99.9,-100.00,NW,315,0.0,0.0,-999,0.00,,,0.00,,2013-08-12 08:33:00,
2013-08-12 03:43:00,52.0,-99.9,-100.00,NW,315,0.0,0.0,-999,0.00,,,0.00,,2013-08-12 08:43:00,
2013-08-12 04:02:00,52.0,-99.9,-100.00,NW,315,0.0,0.0,-999,0.00,,,0.00,,2013-08-12 09:02:00,
2013-08-12 04:11:00,51.0,-99.9,-100.00,NW,315,0.0,0.0,-999,0.00,,,0.00,,2013-08-12 09:11:00,
2013-08-12 04:32:00,51.0,-99.9,-100.00,NW,315,0.0,0.0,-999,0.00,,,0.00,,2013-08-12 09:32:00,
2013-08-12 04:43:00,51.0,-99.9,-100.00,NW,315,0.0,0.0,-999,0.00,,,0.00,,2013-08-12 09:43:00,
2013-08-12 05:02:00,50.0,-99.9,-100.00,NW,315,0.0,0.0,-999,0.00,,,0.00,,2013-08-12 10:02:00,
2013-08-12 05:12:00,50.0,-99.9,-100.00,NW,315,0.0,0.0,-999,0.00,,,0.00,,2013-08-12 10:12:00,
2013-08-12 05:32:00,49.0,-99.9,-100.00,NW,315,0.0,0.0,-999,0.00,,,0.00,,2013-08-12 10:32:00,
2013-08-12 05:43:00,50.0,-99.9,-100.00,NW,315,0.0,0.0,-999,0.00,,,0.00,,2013-08-12 10:43:00,
2013-08-12 05:52:00,50.0,-99.9,-100.00,NW,315,0.0,0.0,-999,0.00,,,0.00,,2013-08-12 10:52:00,
2013-08-12 06:02:00,50.0,-99.9,-100.00,NW,315,1.0,2.0,-999,0.00,,,0.00,,2013-08-12 11:02:00,
2013-08-12 06:12:00,51.0,-99.9,-100.00,NW,315,0.0,2.0,-999,0.00,,,0.00,,2013-08-12 11:12:00,
2013-08-12 06:32:00,54.0,-99.9,-100.00,NW,315,0.0,3.0,-999,0.00,,,0.00,,2013-08-12 11:32:00,
2013-08-12 06:43:00,54.0,-99.9,-100.00,NW,315,1.0,3.0,-999,0.00,,,0.00,,2013-08-12 11:43:00,
2013-08-12 07:02:00,56.0,-99.9,-100.00,NW,315,0.0,3.0,-999,0.00,,,0.00,,2013-08-12 12:02:00,
2013-08-12 07:12:00,57.0,-99.9,-100.00,NW,315,0.0,2.0,-999,0.00,,,0.00,,2013-08-12 12:12:00,
2013-08-12 07:32:00,58.0,-99.9,-100.00,NW,315,1.0,3.0,-999,0.00,,,0.00,,2013-08-12 12:32:00,
2013-08-12 07:43:00,58.0,-99.9,-100.00,WNW,293,1.0,3.0,-999,0.00,,,0.00,,2013-08-12 12:43:00,
2013-08-12 08:02:00,57.0,-99.9,-100.00,West,270,0.0,3.0,-999,0.00,,,0.00,,2013-08-12 13:02:00,
2013-08-12 08:12:00,58.0,-99.9,-100.00,West,270,0.0,2.0,-999,0.00,,,0.00,,2013-08-12 13:12:00,
2013-08-12 08:22:00,58.0,-99.9,-100.00,West,270,0.0,3.0,-999,0.00,,,0.00,,2013-08-12 13:22:00,
2013-08-12 08:33:00,59.0,-99.9,-100.00,West,270,0.0,1.0,-999,0.00,,,0.00,,2013-08-12 13:33:00,
2013-08-12 08:43:00,59.0,-99.9,-100.00,West,270,0.0,1.0,-999,0.00,,,0.00,,2013-08-12 13:43:00,
2013-08-12 09:02:00,60.0,-99.9,-100.00,West,270,0.0,3.0,-999,0.00,,,0.00,,2013-08-12 14:02:00,
2013-08-12 09:12:00,61.0,-99.9,-100.00,North,0,2.0,6.0,-999,0.00,,,0.00,,2013-08-12 14:12:00,
2013-08-12 09:32:00,63.0,-99.9,-100.00,NNW,338,3.0,7.0,-999,0.00,,,0.00,,2013-08-12 14:32:00,
2013-08-12 09:42:00,64.0,-99.9,-100.00,North,0,2.0,7.0,-999,0.00,,,0.00,,2013-08-12 14:42:00,
2013-08-12 10:02:00,64.0,-99.9,-100.00,NW,315,1.0,10.0,-999,0.00,,,0.00,,2013-08-12 15:02:00,
2013-08-12 10:12:00,64.0,-99.9,-100.00,NW,315,1.0,9.0,-999,0.00,,,0.00,,2013-08-12 15:12:00,
2013-08-12 10:33:00,65.0,-99.9,-100.00,NNW,338,2.0,7.0,-999,0.00,,,0.00,,2013-08-12 15:33:00,
2013-08-12 10:43:00,66.0,-99.9,-100.00,NNW,338,1.0,7.0,-999,0.00,,,0.00,,2013-08-12 15:43:00,
2013-08-12 10:52:00,66.0,-99.9,-100.00,NW,315,3.0,7.0,-999,0.00,,,0.00,,2013-08-12 15:52:00,
2013-08-12 11:02:00,68.0,-99.9,-100.00,NW,315,3.0,7.0,-999,0.00,,,0.00,,2013-08-12 16:02:00,
2013-08-12 11:11:00,68.0,-99.9,-100.00,NNW,338,5.0,7.0,-999,0.00,,,0.00,,2013-08-12 16:11:00,
2013-08-12 11:33:00,67.0,-99.9,-100.00,NNW,338,3.0,7.0,-999,0.00,,,0.00,,2013-08-12 16:33:00,
2013-08-12 11:43:00,69.0,-99.9,-100.00,NW,315,5.0,10.0,-999,0.00,,,0.00,,2013-08-12 16:43:00,
2013-08-12 11:53:00,68.0,-99.9,-100.00,WNW,293,2.0,10.0,-999,0.00,,,0.00,,2013-08-12 16:53:00,
2013-08-12 12:02:00,70.0,-99.9,-100.00,NW,315,1.0,12.0,-999,0.00,,,0.00,,2013-08-12 17:02:00,
2013-08-12 12:11:00,69.0,-99.9,-100.00,NW,315,3.0,12.0,-999,0.00,,,0.00,,2013-08-12 17:11:00,
2013-08-12 12:32:00,69.0,-99.9,-100.00,NNW,338,1.0,10.0,-999,0.00,,,0.00,,2013-08-12 17:32:00,
2013-08-12 12:43:00,70.0,-99.9,-100.00,North,0,2.0,9.0,-999,0.00,,,0.00,,2013-08-12 17:43:00,
2013-08-12 12:52:00,70.0,-99.9,-100.00,NW,315,6.0,12.0,-999,0.00,,,0.00,,2013-08-12 17:52:00,
2013-08-12 13:02:00,70.0,-99.9,-100.00,NE,45,2.0,12.0,-999,0.00,,,0.00,,2013-08-12 18:02:00,
2013-08-12 13:11:00,72.0,-99.9,-100.00,NNW,338,1.0,8.0,-999,0.00,,,0.00,,2013-08-12 18:11:00,
2013-08-12 13:24:00,72.0,-99.9,-100.00,North,0,2.0,12.0,-999,0.00,,,0.00,,2013-08-12 18:24:00,
2013-08-12 13:32:00,71.0,-99.9,-100.00,NNW,338,2.0,6.0,-999,0.00,,,0.00,,2013-08-12 18:32:00,
2013-08-12 13:43:00,68.0,-99.9,-100.00,NNW,338,1.0,12.0,-999,0.00,,,0.00,,2013-08-12 18:43:00,
2013-08-12 13:52:00,68.0,-99.9,-100.00,NW,315,0.0,9.0,-999,0.00,,,0.00,,2013-08-12 18:52:00,
2013-08-12 14:02:00,68.0,-99.9,-100.00,NNE,23,2.0,8.0,-999,0.00,,,0.00,,2013-08-12 19:02:00,
2013-08-12 14:11:00,66.0,-99.9,-100.00,NNE,23,0.0,7.0,-999,0.00,,,0.00,,2013-08-12 19:11:00,
2013-08-12 14:33:00,68.0,-99.9,-100.00,NW,315,3.0,9.0,-999,0.00,,,0.00,,2013-08-12 19:33:00,
2013-08-12 14:43:00,67.0,-99.9,-100.00,NW,315,3.0,9.0,-999,0.00,,,0.00,,2013-08-12 19:43:00,
2013-08-12 14:52:00,68.0,-99.9,-100.00,North,0,1.0,7.0,-999,0.00,,,0.00,,2013-08-12 19:52:00,
2013-08-12 15:02:00,70.0,-99.9,-100.00,North,0,2.0,6.0,-999,0.00,,,0.00,,2013-08-12 20:02:00,
2013-08-12 15:11:00,69.0,-99.9,-100.00,North,0,1.0,10.0,-999,0.00,,,0.00,,2013-08-12 20:11:00,
2013-08-12 15:32:00,69.0,-99.9,-100.00,North,0,2.0,9.0,-999,0.00,,,0.00,,2013-08-12 20:32:00,
2013-08-12 15:42:00,69.0,-99.9,-100.00,North,0,3.0,9.0,-999,0.00,,,0.00,,2013-08-12 20:42:00,
2013-08-12 15:52:00,67.0,-99.9,-100.00,North,0,1.0,9.0,-999,0.00,,,0.00,,2013-08-12 20:52:00,
2013-08-12 16:02:00,66.0,-99.9,-100.00,North,0,2.0,8.0,-999,0.00,,,0.00,,2013-08-12 21:02:00,
2013-08-12 16:12:00,65.0,-99.9,-100.00,NNE,23,2.0,10.0,-999,0.00,,,0.00,,2013-08-12 21:12:00,
2013-08-12 16:32:00,65.0,-99.9,-100.00,NE,45,2.0,7.0,-999,0.00,,,0.00,,2013-08-12 21:32:00,
2013-08-12 16:43:00,65.0,-99.9,-100.00,North,0,6.0,13.0,-999,0.00,,,0.00,,2013-08-12 21:43:00,
2013-08-12 16:52:00,64.0,-99.9,-100.00,NNE,23,2.0,13.0,-999,0.00,,,0.00,,2013-08-12 21:52:00,
2013-08-12 17:02:00,64.0,-99.9,-100.00,North,0,3.0,7.0,-999,0.00,,,0.00,,2013-08-12 22:02:00,
2013-08-12 17:11:00,64.0,-99.9,-100.00,NNE,23,2.0,12.0,-999,0.00,,,0.00,,2013-08-12 22:11:00,
2013-08-12 17:32:00,62.0,-99.9,-100.00,North,0,3.0,7.0,-999,0.00,,,0.00,,2013-08-12 22:32:00,
2013-08-12 17:43:00,62.0,-99.9,-100.00,NNE,23,1.0,7.0,-999,0.00,,,0.00,,2013-08-12 22:43:00,
2013-08-12 18:02:00,60.0,-99.9,-100.00,North,0,3.0,12.0,-999,0.00,,,0.00,,2013-08-12 23:02:00,
2013-08-12 18:11:00,61.0,-99.9,-100.00,North,0,2.0,9.0,-999,0.00,,,0.00,,2013-08-12 23:11:00,
2013-08-12 18:22:00,60.0,-99.9,-100.00,NNE,23,3.0,14.0,-999,0.00,,,0.00,,2013-08-12 23:22:00,
2013-08-12 18:54:00,58.0,-99.9,-100.00,North,0,2.0,12.0,-999,0.00,,,0.00,,2013-08-12 23:54:00,
2013-08-12 19:13:00,57.0,-99.9,-100.00,North,0,2.0,9.0,-999,0.00,,,0.00,,2013-08-13 00:13:00,
2013-08-12 19:24:00,57.0,-99.9,-100.00,NNE,23,3.0,12.0,-999,0.00,,,0.00,,2013-08-13 00:24:00,
2013-08-12 19:45:00,56.0,-99.9,-100.00,NNE,23,1.0,10.0,-999,0.00,,,0.00,,2013-08-13 00:45:00,
2013-08-12 19:54:00,56.0,-99.9,-100.00,North,0,3.0,9.0,-999,0.00,,,0.00,,2013-08-13 00:54:00,
2013-08-12 20:13:00,55.0,-99.9,-100.00,North,0,2.0,6.0,-999,0.00,,,0.00,,2013-08-13 01:13:00,
2013-08-12 20:24:00,54.0,-99.9,-100.00,North,0,0.0,5.0,-999,0.00,,,0.00,,2013-08-13 01:24:00,
2013-08-12 20:42:00,55.0,-99.9,-100.00,NNE,23,1.0,3.0,-999,0.00,,,0.00,,2013-08-13 01:42:00,
2013-08-12 20:55:00,54.0,-99.9,-100.00,NE,45,0.0,2.0,-999,0.00,,,0.00,,2013-08-13 01:55:00,
2013-08-12 21:22:00,53.0,-99.9,-100.00,NNE,23,0.0,1.0,-999,0.00,,,0.00,,2013-08-13 02:22:00,
2013-08-12 21:43:00,53.0,-99.9,-100.00,North,0,0.0,2.0,-999,0.00,,,0.00,,2013-08-13 02:43:00,
2013-08-12 21:52:00,52.0,-99.9,-100.00,North,0,0.0,1.0,-999,0.00,,,0.00,,2013-08-13 02:52:00,
2013-08-12 22:22:00,50.0,-99.9,-100.00,North,0,0.0,1.0,-999,0.00,,,0.00,,2013-08-13 03:22:00,
2013-08-12 22:54:00,48.0,-99.9,-100.00,North,0,0.0,0.0,-999,0.00,,,0.00,,2013-08-13 03:54:00,
2013-08-12 23:13:00,47.0,-99.9,-100.00,North,0,0.0,0.0,-999,0.00,,,0.00,,2013-08-13 04:13:00,
2013-08-12 23:23:00,46.0,-99.9,-100.00,North,0,0.0,0.0,-999,0.00,,,0.00,,2013-08-13 04:23:00,
2013-08-12 23:53:00,45.0,-99.9,-100.00,North,0,0.0,0.0,-999,0.00,,,0.00,,2013-08-13 04:53:00,